Weather History for FBSK - January, 2014

Change the Weather History Date:

Friday, January 17, 2014

  Actual Average Record
Temperature  
Mean Temperature 84 °F -  
Max Temperature 98 °F 86 °F 98 °F (2002)
Min Temperature 71 °F 65 °F 62 °F (2000)
Cooling Degree Days 20    
Growing Degree Days 34 (Base 50)    
Moisture  
Dew Point 53 °F    
Average Humidity 39    
Maximum Humidity 73    
Minimum Humidity 14    
Precipitation  
Precipitation 0.00 in - - ()
Sea Level Pressure  
Sea Level Pressure 30.04 in    
Wind  
Wind Speed 6 mph ()    
Max Wind Speed 13 mph    
Max Gust Speed -    
Visibility 6.2 miles    
Events      
Averages and records for this station are not official NWS values.
T = Trace of Precipitation, MM = Missing Value Source: Averaged Metar Reports

Daily Weather History Graph

Daily Weather History Graph

Search for Another Location

Airport or City:

Trip Planner

Search our weather history database for the weather conditions in past years. The results will help you decide how hot, cold, wet, or windy it might be!

Date:

Astronomy

Jan. 17, 2014 Rise Set
Actual Time 5:42 AM CAT 7:10 PM CAT
Civil Twilight 5:17 AM CAT 7:35 PM CAT
Nautical Twilight 4:47 AM CAT 8:04 PM CAT
Astronomical Twilight 4:16 AM CAT 8:35 PM CAT
Moon 7:51 PM CAT (1/17) 6:39 AM CAT (1/17)
Length of Visible Light 14h 17m
Length of Day
13h 27m
Full, 99% of the Moon is Illuminated
Jan 17
Full
Jan 24
Last Quarter
Jan 30
New
Feb 6
First Quarter
Feb 15
Full

Hourly Weather History & Observations

Time (CAT) Temp. Heat Index Dew Point Humidity Pressure Visibility Wind Dir Wind Speed Gust Speed Precip Events Conditions
12:00 AM 77.0 °F - 51.8 °F 41% 30.04 in - Variable 1.2 mph - N/A   Clear
1:00 AM 75.2 °F - 51.8 °F 44% 30.04 in - ENE 4.6 mph - N/A   Clear
2:00 AM 75.2 °F - 51.8 °F 44% 30.04 in - ENE 5.8 mph - N/A   Clear
3:00 AM 75.2 °F - 53.6 °F 47% 30.04 in - ENE 9.2 mph - N/A   Clear
4:00 AM 73.4 °F - 60.8 °F 65% 30.06 in - ENE 11.5 mph - N/A   Clear
5:00 AM 73.4 °F - 62.6 °F 69% 30.09 in - ENE 11.5 mph - N/A   Clear
6:00 AM 71.6 °F - 62.6 °F 73% 30.12 in - ENE 12.7 mph - N/A   Clear
7:00 AM 73.4 °F - 60.8 °F 65% 30.12 in - ENE 11.5 mph - N/A   Clear
8:00 AM 75.2 °F - 60.8 °F 61% 30.15 in - ENE 12.7 mph - N/A   Clear
9:00 AM 78.8 °F - 60.8 °F 54% 30.12 in - NE 10.4 mph - N/A   Clear
10:00 AM 80.6 °F 81.5 °F 60.8 °F 51% 30.12 in - NNE 8.1 mph - N/A   Clear
11:00 AM 84.2 °F 84.4 °F 60.8 °F 45% 30.09 in - Variable 3.5 mph - N/A   Clear
12:00 PM 87.8 °F 87.1 °F 59.0 °F 38% 30.06 in - Variable 4.6 mph - N/A   Clear
1:00 PM 91.4 °F 89.9 °F 57.2 °F 31% 30.06 in 6.2 mi Variable 3.5 mph - N/A   Partly Cloudy
2:00 PM 93.2 °F - 51.8 °F 24% 30.04 in 6.2 mi Variable 3.5 mph - N/A   Partly Cloudy
3:00 PM 95.0 °F - 50.0 °F 22% 30.01 in 6.2 mi Variable 5.8 mph - N/A   Partly Cloudy
4:00 PM 96.8 °F - 44.6 °F 17% 29.95 in 6.2 mi Variable 4.6 mph - N/A   Partly Cloudy
5:00 PM 98.6 °F - 41.0 °F 14% 29.95 in 6.2 mi East 9.2 mph - N/A   Partly Cloudy
6:00 PM 96.8 °F - 44.6 °F 17% 29.95 in 6.2 mi ESE 10.4 mph - N/A   Partly Cloudy
7:00 PM 93.2 °F - 42.8 °F 17% 29.95 in 6.2 mi East 8.1 mph - N/A   Partly Cloudy
8:00 PM 89.6 °F - 44.6 °F 21% 29.95 in - East 4.6 mph - N/A   Clear
9:00 PM 84.2 °F - 46.4 °F 27% 29.98 in - ESE 4.6 mph - N/A   Clear
10:00 PM 84.2 °F - 44.6 °F 25% 29.98 in - SE 6.9 mph - N/A   Clear
11:00 PM 82.4 °F - 48.2 °F 30% 30.01 in - NE 9.2 mph - N/A   Clear